Starlink 30041

operational
NORAD ID: 57613 Int'l Des: 2023-119 Owner: SPXS Country: US Constellation: starlink
LEOCIRCULAR

Starlink 30041について

説明を読み込み中...

リアルタイム位置

3D地球を読み込み中...

次回通過

高度履歴

Altitude vs Time

uPlot chart will show altitude changes over time

軌道要素

1 57613U 23119M 25257.89218145 .00000569 00000-0 57157-4 0 9996
2 57613 43.0015 316.6512 0001175 271.2397 88.8311 15.02544316116644
Epoch: Sep 14, 2025 • Age: 21 hours

現在のステータス

高度 566.8 km
速度 7.58 km/s
衛星直下点 -31.04°S, 8.07°E
打ち上げ日 Aug 11, 2023
運用期間 2 years
タイプ internet

技術仕様

分類 Payload
質量 730.00 kg
乾燥質量 700.00 kg
総質量 730.00 kg
長さ 0.30 m
直径 4.10 m
スパン 29.00 m
形状 Box + pan
製造者 SPXS
バスタイプ Starlink V2M
フェーズステータス In Orbit
所有者/国 SPXS/US

大規模コンステレーション

Loading constellations...